Location: Newark
(48.8604°N, 2.3376°E)
Time: 17:48:08
(UTC+00:00)

XW-2C - Pass Details

Date: 12 December 2021
Orbit: 503 x 523 km, 97.5° (Epoch: 17 January)

Event Time Altitude Azimuth Distance (km) Brightness Sun altitude
Rises 06:23:23 0° 8° (N) 2,672 ? -11.1°
Reaches altitude 10° 06:25:32 10° 3° (N) 1,777 ? -10.8°
Maximum altitude 06:29:15 49° 288° (WNW) 680 ? -10.2°
Drops below altitude 10° 06:32:55 10° 213° (SSW) 1,757 ? -9.7°
Sets 06:35:03 0° 208° (SSW) 2,638 ? -9.4°
